Time,TemperatureF,DewpointF,PressureIn,WindDirection,WindDirectionDegrees,WindSpeedMPH,WindSpeedGustMPH,Humidity,HourlyPrecipIn,Conditions,Clouds,dailyrainin,SoftwareType,DateUTC
2013-01-14 00:04:00,33.0,31.0,30.06,WNW,288,7.0,17.0,91,0.00,,,1.56,,2013-01-14 05:04:00,
2013-01-14 00:12:00,33.0,31.0,30.06,WNW,288,7.0,17.0,91,0.00,,,1.56,,2013-01-14 05:12:00,
2013-01-14 00:22:00,32.0,28.0,30.09,WNW,297,9.0,20.0,86,0.00,,,1.56,,2013-01-14 05:22:00,
2013-01-14 00:33:00,32.0,28.0,30.09,WNW,294,6.0,19.0,86,0.00,,,1.36,,2013-01-14 05:33:00,
2013-01-14 00:43:00,32.0,28.0,30.09,WNW,294,6.0,19.0,86,0.00,,,1.36,,2013-01-14 05:43:00,
2013-01-14 00:52:00,32.0,29.0,30.10,West,276,8.0,14.0,87,0.00,,,1.36,,2013-01-14 05:52:00,
2013-01-14 01:03:00,31.0,28.0,30.11,WNW,287,9.0,20.0,88,0.00,,,1.36,,2013-01-14 06:03:00,
2013-01-14 01:12:00,31.0,28.0,30.11,WNW,287,9.0,20.0,88,0.00,,,1.36,,2013-01-14 06:12:00,
2013-01-14 01:22:00,30.0,27.0,30.11,West,262,10.0,19.0,88,0.00,,,1.36,,2013-01-14 06:22:00,
2013-01-14 01:33:00,29.0,26.0,30.12,WNW,293,12.0,19.0,88,0.00,,,1.12,,2013-01-14 06:33:00,
2013-01-14 01:43:00,29.0,26.0,30.12,WNW,293,12.0,19.0,88,0.00,,,1.12,,2013-01-14 06:43:00,
2013-01-14 01:52:00,29.0,26.0,30.14,West,271,8.0,19.0,89,0.00,,,1.12,,2013-01-14 06:52:00,
2013-01-14 02:02:00,28.0,25.0,30.14,West,270,11.0,19.0,88,0.00,,,1.12,,2013-01-14 07:02:00,
2013-01-14 02:12:00,28.0,25.0,30.14,West,270,11.0,19.0,88,0.00,,,1.12,,2013-01-14 07:12:00,
2013-01-14 02:23:00,27.0,24.0,30.16,West,281,8.0,17.0,89,0.00,,,1.12,,2013-01-14 07:23:00,
2013-01-14 02:33:00,27.0,24.0,30.16,WNW,290,8.0,16.0,89,0.00,,,0.82,,2013-01-14 07:33:00,
2013-01-14 02:43:00,27.0,24.0,30.16,WNW,290,8.0,16.0,89,0.00,,,0.82,,2013-01-14 07:43:00,
2013-01-14 02:52:00,27.0,24.0,30.18,WNW,288,8.0,17.0,88,0.00,,,0.82,,2013-01-14 07:52:00,
2013-01-14 03:02:00,27.0,24.0,30.20,West,274,7.0,15.0,88,0.00,,,0.82,,2013-01-14 08:02:00,
2013-01-14 03:12:00,27.0,24.0,30.20,West,274,7.0,15.0,88,0.00,,,0.82,,2013-01-14 08:12:00,
2013-01-14 03:22:00,26.0,23.0,30.21,West,273,11.0,18.0,87,0.00,,,0.82,,2013-01-14 08:22:00,
2013-01-14 03:33:00,26.0,22.0,30.22,WNW,290,11.0,19.0,85,0.00,,,0.59,,2013-01-14 08:33:00,
2013-01-14 03:42:00,26.0,22.0,30.22,WNW,290,11.0,19.0,85,0.00,,,0.59,,2013-01-14 08:42:00,
2013-01-14 03:53:00,26.0,22.0,30.22,West,263,6.0,21.0,86,0.00,,,0.59,,2013-01-14 08:53:00,
2013-01-14 04:03:00,26.0,23.0,30.23,West,273,9.0,17.0,88,0.00,,,0.59,,2013-01-14 09:03:00,
2013-01-14 04:12:00,26.0,23.0,30.23,West,273,9.0,17.0,88,0.00,,,0.59,,2013-01-14 09:12:00,
2013-01-14 04:23:00,25.0,22.0,30.24,West,276,10.0,18.0,87,0.00,,,0.59,,2013-01-14 09:23:00,
2013-01-14 04:33:00,25.0,22.0,30.24,West,276,10.0,18.0,87,0.00,,,0.59,,2013-01-14 09:33:00,
2013-01-14 04:43:00,25.0,22.0,30.24,West,276,10.0,18.0,87,0.00,,,0.59,,2013-01-14 09:43:00,
2013-01-14 04:52:00,24.0,21.0,30.25,West,267,7.0,14.0,87,0.00,,,0.34,,2013-01-14 09:52:00,
2013-01-14 05:03:00,24.0,21.0,30.25,WNW,291,8.0,15.0,87,0.00,,,0.34,,2013-01-14 10:03:00,
2013-01-14 05:12:00,24.0,21.0,30.25,WNW,291,8.0,15.0,87,0.00,,,0.34,,2013-01-14 10:12:00,
2013-01-14 05:23:00,24.0,21.0,30.26,WNW,290,9.0,15.0,87,0.00,,,0.34,,2013-01-14 10:23:00,
2013-01-14 05:32:00,23.0,19.0,30.27,West,278,10.0,16.0,86,0.00,,,0.23,,2013-01-14 10:32:00,
2013-01-14 05:43:00,23.0,19.0,30.27,West,278,10.0,16.0,86,0.00,,,0.23,,2013-01-14 10:43:00,
2013-01-14 05:52:00,23.0,20.0,30.27,WNW,288,10.0,15.0,87,0.00,,,0.23,,2013-01-14 10:52:00,
2013-01-14 06:02:00,23.0,20.0,30.27,WNW,288,10.0,16.0,88,0.00,,,0.23,,2013-01-14 11:02:00,
2013-01-14 06:12:00,23.0,20.0,30.27,WNW,288,10.0,16.0,88,0.00,,,0.23,,2013-01-14 11:12:00,
2013-01-14 06:22:00,23.0,20.0,30.28,West,271,10.0,18.0,88,0.00,,,0.23,,2013-01-14 11:22:00,
2013-01-14 06:33:00,22.0,19.0,30.28,NW,305,9.0,15.0,87,0.00,,,0.21,,2013-01-14 11:33:00,
2013-01-14 06:43:00,22.0,19.0,30.28,NW,305,9.0,15.0,87,0.00,,,0.21,,2013-01-14 11:43:00,
2013-01-14 06:53:00,22.0,19.0,30.29,West,278,8.0,16.0,88,0.00,,,0.21,,2013-01-14 11:53:00,
2013-01-14 07:03:00,22.0,19.0,30.30,NNW,329,6.0,15.0,88,0.00,,,0.21,,2013-01-14 12:03:00,
2013-01-14 07:12:00,22.0,19.0,30.30,NNW,329,6.0,15.0,88,0.00,,,0.21,,2013-01-14 12:12:00,
2013-01-14 07:23:00,22.0,19.0,30.31,NNW,342,4.0,10.0,87,0.00,,,0.21,,2013-01-14 12:23:00,
2013-01-14 07:33:00,22.0,18.0,30.32,WNW,295,8.0,13.0,86,0.00,,,0.21,,2013-01-14 12:33:00,
2013-01-14 07:43:00,22.0,18.0,30.32,WNW,295,8.0,13.0,86,0.00,,,0.21,,2013-01-14 12:43:00,
2013-01-14 07:53:00,22.0,19.0,30.33,West,269,7.0,11.0,87,0.00,,,0.21,,2013-01-14 12:53:00,
2013-01-14 08:03:00,22.0,19.0,30.33,West,269,7.0,11.0,87,0.00,,,0.21,,2013-01-14 13:03:00,
2013-01-14 08:13:00,22.0,19.0,30.33,West,269,7.0,11.0,87,0.00,,,0.21,,2013-01-14 13:13:00,
2013-01-14 08:23:00,22.0,19.0,30.35,West,281,6.0,11.0,87,0.00,,,0.21,,2013-01-14 13:23:00,
2013-01-14 08:33:00,22.0,19.0,30.36,WNW,291,6.0,11.0,87,0.00,,,0.21,,2013-01-14 13:33:00,
2013-01-14 08:43:00,22.0,19.0,30.36,WNW,291,6.0,11.0,87,0.00,,,0.21,,2013-01-14 13:43:00,
2013-01-14 08:53:00,22.0,19.0,30.37,WNW,287,6.0,12.0,87,0.00,,,0.21,,2013-01-14 13:53:00,
2013-01-14 09:03:00,22.0,19.0,30.37,West,270,6.0,10.0,87,0.00,,,0.21,,2013-01-14 14:03:00,
2013-01-14 09:13:00,22.0,19.0,30.37,West,270,6.0,10.0,87,0.00,,,0.21,,2013-01-14 14:13:00,
2013-01-14 09:23:00,22.0,19.0,30.38,WNW,283,5.0,10.0,87,0.00,,,0.21,,2013-01-14 14:23:00,
2013-01-14 09:33:00,22.0,19.0,30.38,WNW,283,5.0,10.0,87,0.00,,,0.21,,2013-01-14 14:33:00,
2013-01-14 09:43:00,22.0,19.0,30.38,WNW,283,5.0,10.0,87,0.00,,,0.21,,2013-01-14 14:43:00,
2013-01-14 09:53:00,23.0,20.0,30.39,NW,312,4.0,8.0,87,0.00,,,0.21,,2013-01-14 14:53:00,
2013-01-14 10:03:00,23.0,20.0,30.40,WNW,293,6.0,12.0,87,0.00,,,0.21,,2013-01-14 15:03:00,
2013-01-14 10:12:00,23.0,20.0,30.40,WNW,293,6.0,12.0,87,0.00,,,0.21,,2013-01-14 15:12:00,
2013-01-14 10:23:00,23.0,20.0,30.41,WNW,287,4.0,8.0,87,0.00,,,0.21,,2013-01-14 15:23:00,
2013-01-14 10:33:00,23.0,19.0,30.41,NW,314,2.0,11.0,85,0.00,,,0.21,,2013-01-14 15:33:00,
2013-01-14 10:43:00,23.0,19.0,30.41,NW,314,2.0,11.0,85,0.00,,,0.21,,2013-01-14 15:43:00,
2013-01-14 10:53:00,23.0,19.0,30.40,NNW,348,7.0,13.0,84,0.00,,,0.21,,2013-01-14 15:53:00,
2013-01-14 11:03:00,23.0,19.0,30.40,NNW,348,7.0,13.0,84,0.00,,,0.21,,2013-01-14 16:03:00,
2013-01-14 11:13:00,23.0,19.0,30.40,NNW,348,7.0,13.0,84,0.00,,,0.21,,2013-01-14 16:13:00,
2013-01-14 11:23:00,23.0,19.0,30.40,West,264,2.0,9.0,83,0.00,,,0.21,,2013-01-14 16:23:00,
2013-01-14 11:33:00,23.0,18.0,30.40,NW,315,2.0,5.0,82,0.00,,,0.21,,2013-01-14 16:33:00,
2013-01-14 11:43:00,23.0,18.0,30.40,NW,315,2.0,5.0,82,0.00,,,0.21,,2013-01-14 16:43:00,
2013-01-14 11:53:00,24.0,19.0,30.39,North,358,1.0,7.0,82,0.00,,,0.21,,2013-01-14 16:53:00,
2013-01-14 12:03:00,24.0,19.0,30.38,North,11,2.0,5.0,82,0.00,,,0.21,,2013-01-14 17:03:00,
2013-01-14 12:12:00,24.0,19.0,30.38,North,11,2.0,5.0,82,0.00,,,0.21,,2013-01-14 17:12:00,
2013-01-14 12:23:00,24.0,19.0,30.37,East,81,0.0,3.0,82,0.00,,,0.21,,2013-01-14 17:23:00,
2013-01-14 12:33:00,24.0,20.0,30.37,NE,46,1.0,3.0,83,0.00,,,0.21,,2013-01-14 17:33:00,
2013-01-14 12:43:00,24.0,20.0,30.37,NE,46,1.0,3.0,83,0.00,,,0.21,,2013-01-14 17:43:00,
2013-01-14 12:53:00,24.0,19.0,30.37,West,260,0.0,3.0,82,0.00,,,0.21,,2013-01-14 17:53:00,
2013-01-14 13:03:00,24.0,19.0,30.36,NNW,346,3.0,6.0,82,0.00,,,0.21,,2013-01-14 18:03:00,
2013-01-14 13:13:00,24.0,19.0,30.36,NNW,346,3.0,6.0,82,0.00,,,0.21,,2013-01-14 18:13:00,
2013-01-14 13:23:00,24.0,19.0,30.37,North,354,2.0,6.0,82,0.00,,,0.21,,2013-01-14 18:23:00,
2013-01-14 13:33:00,25.0,21.0,30.38,NW,315,0.0,5.0,83,0.00,,,0.21,,2013-01-14 18:33:00,
2013-01-14 13:43:00,25.0,21.0,30.38,NW,315,0.0,5.0,83,0.00,,,0.21,,2013-01-14 18:43:00,
2013-01-14 13:52:00,25.0,20.0,30.38,West,271,1.0,3.0,82,0.00,,,0.21,,2013-01-14 18:52:00,
2013-01-14 14:03:00,25.0,20.0,30.38,West,271,1.0,3.0,82,0.00,,,0.21,,2013-01-14 19:03:00,
2013-01-14 14:13:00,25.0,20.0,30.38,West,271,1.0,3.0,82,0.00,,,0.21,,2013-01-14 19:13:00,
2013-01-14 14:22:00,25.0,20.0,30.37,West,277,0.0,1.0,82,0.00,,,0.21,,2013-01-14 19:22:00,
2013-01-14 14:33:00,25.0,20.0,30.39,West,262,2.0,6.0,82,0.00,,,0.21,,2013-01-14 19:33:00,
2013-01-14 14:43:00,25.0,20.0,30.39,West,262,2.0,6.0,82,0.00,,,0.21,,2013-01-14 19:43:00,
2013-01-14 14:52:00,25.0,20.0,30.39,WNW,302,1.0,6.0,82,0.00,,,0.21,,2013-01-14 19:52:00,
2013-01-14 15:04:00,25.0,20.0,30.38,West,271,3.0,6.0,81,0.00,,,0.21,,2013-01-14 20:04:00,
2013-01-14 15:13:00,25.0,20.0,30.38,West,271,3.0,6.0,81,0.00,,,0.21,,2013-01-14 20:13:00,
2013-01-14 15:23:00,25.0,20.0,30.40,WNW,297,1.0,7.0,80,0.00,,,0.21,,2013-01-14 20:23:00,
2013-01-14 15:33:00,26.0,20.0,30.40,WNW,284,0.0,6.0,79,0.00,,,0.21,,2013-01-14 20:33:00,
2013-01-14 15:43:00,26.0,20.0,30.40,WNW,284,0.0,6.0,79,0.00,,,0.21,,2013-01-14 20:43:00,
2013-01-14 15:53:00,26.0,20.0,30.42,SW,217,1.0,6.0,79,0.00,,,0.21,,2013-01-14 20:53:00,
2013-01-14 16:03:00,25.0,21.0,30.42,WSW,240,3.0,8.0,83,0.00,,,0.21,,2013-01-14 21:03:00,
2013-01-14 16:13:00,25.0,21.0,30.42,WSW,240,3.0,8.0,83,0.00,,,0.21,,2013-01-14 21:13:00,
2013-01-14 16:23:00,25.0,21.0,30.44,WSW,245,5.0,7.0,85,0.00,,,0.21,,2013-01-14 21:23:00,
2013-01-14 16:33:00,25.0,21.0,30.45,SW,236,6.0,8.0,85,0.00,,,0.17,,2013-01-14 21:33:00,
2013-01-14 16:43:00,25.0,21.0,30.45,SW,236,6.0,8.0,85,0.00,,,0.17,,2013-01-14 21:43:00,
2013-01-14 16:53:00,25.0,21.0,30.44,WSW,245,6.0,8.0,86,0.00,,,0.17,,2013-01-14 21:53:00,
2013-01-14 17:03:00,25.0,21.0,30.46,West,277,5.0,8.0,86,0.00,,,0.17,,2013-01-14 22:03:00,
2013-01-14 17:12:00,25.0,21.0,30.46,West,277,5.0,8.0,86,0.00,,,0.17,,2013-01-14 22:12:00,
2013-01-14 17:23:00,25.0,21.0,30.45,WNW,287,3.0,6.0,86,0.00,,,0.17,,2013-01-14 22:23:00,
2013-01-14 17:33:00,25.0,21.0,30.46,West,271,2.0,5.0,85,0.00,,,0.09,,2013-01-14 22:33:00,
2013-01-14 17:43:00,25.0,21.0,30.46,West,271,2.0,5.0,85,0.00,,,0.09,,2013-01-14 22:43:00,
2013-01-14 17:52:00,25.0,21.0,30.44,West,274,1.0,4.0,85,0.00,,,0.09,,2013-01-14 22:52:00,
2013-01-14 18:03:00,25.0,21.0,30.43,NW,310,2.0,6.0,84,0.00,,,0.09,,2013-01-14 23:03:00,
2013-01-14 18:12:00,25.0,21.0,30.43,NW,310,2.0,6.0,84,0.00,,,0.09,,2013-01-14 23:12:00,
2013-01-14 18:23:00,25.0,21.0,30.43,West,270,3.0,7.0,84,0.00,,,0.09,,2013-01-14 23:23:00,
2013-01-14 18:33:00,25.0,21.0,30.43,WNW,288,3.0,7.0,84,0.00,,,0.03,,2013-01-14 23:33:00,
2013-01-14 18:43:00,25.0,21.0,30.43,WNW,288,3.0,7.0,84,0.00,,,0.03,,2013-01-14 23:43:00,
2013-01-14 18:53:00,25.0,21.0,30.43,WNW,287,2.0,5.0,85,0.00,,,0.03,,2013-01-14 23:53:00,
2013-01-14 19:03:00,25.0,21.0,30.43,West,280,2.0,6.0,85,0.00,,,0.03,,2013-01-15 00:03:00,
2013-01-14 19:12:00,25.0,21.0,30.43,West,280,2.0,6.0,85,0.00,,,0.03,,2013-01-15 00:12:00,
2013-01-14 19:23:00,25.0,21.0,30.42,WNW,302,2.0,5.0,84,0.00,,,0.03,,2013-01-15 00:23:00,
2013-01-14 19:33:00,26.0,22.0,30.42,NW,315,4.0,7.0,83,0.00,,,0.01,,2013-01-15 00:33:00,
2013-01-14 19:43:00,26.0,22.0,30.42,NW,315,4.0,7.0,83,0.00,,,0.01,,2013-01-15 00:43:00,
2013-01-14 19:52:00,25.0,21.0,30.41,WNW,297,1.0,8.0,84,0.00,,,0.01,,2013-01-15 00:52:00,
2013-01-14 20:02:00,25.0,21.0,30.40,NW,312,3.0,7.0,83,0.00,,,0.01,,2013-01-15 01:02:00,
2013-01-14 20:12:00,25.0,21.0,30.40,NW,312,3.0,7.0,83,0.00,,,0.01,,2013-01-15 01:12:00,
2013-01-14 20:22:00,25.0,21.0,30.40,NNW,345,3.0,8.0,83,0.00,,,0.01,,2013-01-15 01:22:00,
2013-01-14 20:32:00,25.0,21.0,30.40,North,357,2.0,5.0,83,0.00,,,0.00,,2013-01-15 01:32:00,
2013-01-14 20:43:00,25.0,21.0,30.40,North,357,2.0,5.0,83,0.00,,,0.00,,2013-01-15 01:43:00,
2013-01-14 20:52:00,25.0,20.0,30.40,WNW,287,1.0,5.0,82,0.00,,,0.00,,2013-01-15 01:52:00,
2013-01-14 21:03:00,25.0,21.0,30.40,NNW,342,1.0,3.0,83,0.00,,,0.00,,2013-01-15 02:03:00,
2013-01-14 21:12:00,25.0,21.0,30.40,NNW,342,1.0,3.0,83,0.00,,,0.00,,2013-01-15 02:12:00,
2013-01-14 21:23:00,25.0,21.0,30.41,North,360,1.0,3.0,83,0.00,,,0.00,,2013-01-15 02:23:00,
2013-01-14 21:33:00,24.0,20.0,30.40,WNW,300,0.0,1.0,84,0.00,,,0.00,,2013-01-15 02:33:00,
2013-01-14 21:42:00,24.0,20.0,30.40,WNW,300,0.0,1.0,84,0.00,,,0.00,,2013-01-15 02:42:00,
2013-01-14 21:52:00,24.0,20.0,30.41,North,350,1.0,2.0,84,0.00,,,0.00,,2013-01-15 02:52:00,
2013-01-14 22:03:00,24.0,20.0,30.40,North,360,1.0,2.0,85,0.00,,,0.00,,2013-01-15 03:03:00,
2013-01-14 22:12:00,24.0,20.0,30.40,North,360,1.0,2.0,85,0.00,,,0.00,,2013-01-15 03:12:00,
2013-01-14 22:22:00,24.0,20.0,30.40,North,352,1.0,3.0,85,0.00,,,0.00,,2013-01-15 03:22:00,
2013-01-14 22:33:00,24.0,20.0,30.39,NNE,13,2.0,3.0,86,0.00,,,0.00,,2013-01-15 03:33:00,
2013-01-14 22:42:00,24.0,20.0,30.39,NNE,13,2.0,3.0,86,0.00,,,0.00,,2013-01-15 03:42:00,
2013-01-14 22:52:00,24.0,20.0,30.39,North,349,2.0,4.0,85,0.00,,,0.00,,2013-01-15 03:52:00,
2013-01-14 23:03:00,24.0,21.0,30.40,NNW,333,1.0,3.0,87,0.00,,,0.00,,2013-01-15 04:03:00,
2013-01-14 23:12:00,24.0,21.0,30.40,NNW,333,1.0,3.0,87,0.00,,,0.00,,2013-01-15 04:12:00,
2013-01-14 23:22:00,24.0,21.0,30.40,NW,308,0.0,3.0,87,0.00,,,0.00,,2013-01-15 04:22:00,
2013-01-14 23:33:00,24.0,21.0,30.40,NW,308,0.0,3.0,87,0.00,,,0.00,,2013-01-15 04:33:00,
2013-01-14 23:42:00,24.0,21.0,30.40,NW,308,0.0,3.0,87,0.00,,,0.00,,2013-01-15 04:42:00,
2013-01-14 23:52:00,24.0,21.0,30.39,NNW,348,2.0,4.0,88,0.00,,,0.00,,2013-01-15 04:52:00,